Вернуться в каталог

STARLINK-35122

АктивенСвязьVLEO
NORAD 65510·PAYLOAD·🇺🇸 United States

Запущен Sep 5, 2025 с Cape Canaveral Space Force Station

Loading…

Ближайшие Пролёты (ближайшие 24 часа)

TLE

СвежийSource: CelesTrak SupGP

Эпоха: Sep 14, 2026, 15:26 UTC

1 65510C 25198U   26257.64354167  .00003630  00000+0  10722-3 0  2573
2 65510  53.1580 108.9530 0001140  92.1674 187.2834 15.34396339    12

Отслеживайте STARLINK-35122 в реальном времени с AllMySat

Download on the App Store